Regional Weather Roundup
Issued by NWS San Diego, CA

Home | Current Version | Previous Version | Text Only | Print | Product List | Glossary On
Versions: 1 2 3 4 5 6 7 8 9 10 11 12 13 14 15 16 17 18 19 20 21 22 23 24 25 26 27 28 29 30 31 32 33 34 35 36 37 38 39 40 41 42 43 44 45 46 47 48 49 50
639
ASUS46 KSGX 281411
RWRSGX

SAN DIEGO HOURLY WEATHER ROUNDUP
NATIONAL WEATHER SERVICE SAN DIEGO CA
700 AM PDT SAT MAY 28 2016

NOTE: "FAIR" INDICATES FEW OR NO CLOUDS BELOW 12,000 FEET WITH NO
SIGNIFICANT WEATHER AND/OR OBSTRUCTIONS TO VISIBILITY.

CAZ042-043-060-061-PZZ750-775-281500-

GREATER SAN DIEGO AREA

CITY           SKY/WX    TMP DP  RH WIND       PRES   REMARKS
LINDBERGH FLD  CLOUDY    63  55  75 S3        29.89R
POINT LOMA       N/A     59  53  80 SE3         N/A
NATIONAL CITY    N/A    N/A N/A N/A CALM      29.89R
CHULA VISTA      N/A     61  57  88 SW1       29.81R
IMPERIAL BEACH CLOUDY    63  55  75 S3        29.89R HAZE
BROWN FIELD    CLOUDY    59  55  87 SW3       29.88R FOG
MIRAMAR MCAS   CLOUDY    64  55  72 W3        29.88R
MONTGOMERY FLD CLOUDY    61  55  81 SW3       29.88R

$$

NORTH SAN DIEGO COUNTY

CITY           SKY/WX    TMP DP  RH WIND       PRES   REMARKS
CAMP PENDLETON CLOUDY    62  56  80 S5        29.87R HAZE
OCEANSIDE AP   CLOUDY    62  56  80 VRB3      29.87R HAZE
OCEANSIDE HBR    N/A     62  59  90 SW3       29.90R
VISTA            N/A     60  56  85 CALM      29.85R
CARLSBAD       CLOUDY    61  56  83 S3        29.87R
DEL MAR          N/A     61  57  87 CALM      29.90R
LA JOLLA SCRIP   N/A     61  57  87 S2        29.88R
ESCONDIDO        N/A     60  56  87 CALM      29.89R
SAN MARCOS       N/A     59  51  75 CALM      29.86R
POWAY            N/A     60  55  85 CALM      29.89R

$$

EAST SAN DIEGO COUNTY

CITY           SKY/WX    TMP DP  RH WIND       PRES   REMARKS
RAMONA         CLOUDY    54  53  97 CALM      29.89R FOG
SANTEE LAKES     N/A     60  57  88 CALM      29.87R
LA MESA          N/A     59  55  88 CALM      29.81R
DESCANSO N       N/A     51  42  71 CALM      29.73R
MT. LAGUNA OBS   N/A     57  35  43 NE1       29.59R
CAMPO            N/A     51  44  77 CALM      29.85R

$$

ORANGE COUNTY AND THE LOS ANGELES BASIN

CITY           SKY/WX    TMP DP  RH WIND       PRES   REMARKS
JOHN WAYNE AP  CLOUDY    61  55  81 SE3       29.87R
LAKE FOREST FR   N/A     58  51  80 CALM      29.76R
HUNTINGTON BCH   N/A     62  58  87 S6        29.89R
LOS ALAMITOS   CLOUDY    62  56  81 SE2       29.87R
FULLERTON      CLOUDY    63  55  75 SW3       29.86R
LONG BEACH     CLOUDY    62  56  80 E3        29.87R
L.A. AP        CLOUDY    60  55  83 W3        29.87R
L.A. DOWNTOWN  CLOUDY    63  55  75 CALM      29.86R

$$

THE INLAND EMPIRE

CITY           SKY/WX    TMP DP  RH WIND       PRES   REMARKS
CORONA         CLOUDY    59  54  83 CALM      29.88R
CHINO          CLOUDY    60  54  80 SW6       29.88R
ONTARIO        CLOUDY    59  54  83 W3        29.87R HAZE
SAN BERNARDINO CLOUDY    64  55  72 CALM      29.87  HAZE
RIVERSIDE AP   CLOUDY    59  54  83 W3        29.87R HAZE
MARCH ARB      CLOUDY    56  56 100 W5        29.87R FOG
HORSETHIEF CYN   N/A     56  51  84 N2        29.88R
FRENCH VALLEY  CLOUDY    55  54  94 S3        29.89R

$$

SAN BERNARDINO AND RIVERSIDE COUNTY MOUNTAINS

CITY           SKY/WX    TMP DP  RH WIND       PRES   REMARKS
BIG BEAR AP    SUNNY     37  32  81 CALM      30.06R
PINE COVE        N/A     53  38  57 CALM      29.79R

$$

SOUTHERN DESERT INCLUDING THE COACHELLA VALLEY

CITY           SKY/WX    TMP DP  RH WIND       PRES   REMARKS
PALM SPRINGS   SUNNY     73  50  44 NW5       29.78R
THOUSAND PALMS   N/A     73  46  38 NE1       29.74R
PALM DESERT      N/A     71  54  55 N2        32.15R
THERMAL        SUNNY     68  51  54 SE5       29.74R
BLYTHE         SUNNY     71  37  28 NE5       29.77R
IMPERIAL AP    SUNNY     70  44  39 SE5       29.74R
EL CENTRO NAS  SUNNY     66  46  48 CALM      29.77R
YUMA AZ        SUNNY     74  40  29 N3        29.77R
MEXICALI       SUNNY     66  39  37 E6        29.76

$$

UPPER DESERT

CITY           SKY/WX    TMP DP  RH WIND       PRES   REMARKS
VICTORVILLE AP SUNNY     61  37  41 SE9       29.89R
HESPERIA         N/A     58  40  51 W1        29.91R
PALMDALE       MOSUNNY   63  39  41 S8        29.87R
LANCASTER      MOSUNNY   65  42  43 CALM      29.85R
EDWARDS AFB    PTSUNNY   60  39  45 SW3       29.84R
DAGGETT        MOSUNNY   67  39  35 W10       29.84R
29 PALMS N     MOSUNNY   68  34  28 W8        29.91R
NEEDLES        SUNNY     78  34  20 CALM      29.79R

$$

REGIONAL REPORTS

CITY           SKY/WX    TMP DP  RH WIND       PRES   REMARKS
SANTA BARBARA  CLOUDY    58  54  86 E6        29.86R
SANDBERG       SUNNY     61  40  45 N12       29.94S
LAS VEGAS NV   MOSUNNY   73  32  22 W5        29.80R
PHOENIX AZ     MOSUNNY   73  31  21 E10       29.81R
TIJUANA        CLOUDY    59  52  77 CALM      29.90R FOG
ENSENADA NW      N/A     58  32  36 S3        29.87R

$$

OFFSHORE ISLANDS

CITY           SKY/WX    TMP DP  RH WIND       PRES   REMARKS
CATALINA ARPT  FOG       52  52 100 SW3       29.88R VSB<1/4
SAN NICOLAS IS CLOUDY   N/A N/A N/A SW7       29.87R

$$

MARINE AND OFFSHORE BUOY REPORTS

STATION/POSITION SKY/WX   TEMP    WIND        PRES    SWELL
                          AIR SEA DIR/SP/G            HT/PER/DIR
                          (F)     (DEG/KT/KT) (MB)    (FT/S/D)
TANNER BANKS               57 60  270/  8/ 10 1011.6R   7/320/11
S CLEMENTE BASIN           57 63  230/  6/ 10 1011.9R   5/280/ 9
SAN NICOLAS IS.               58                N/A     3/310/11
SO. S. ROSA ISLA           54 58  150/  2/  4 1011.1R   7/310/11
W. S. BARBARA CH           53 53  130/  4/  6 1010.5R   5/330/10
M. S. BARBARA CH           56 60  110/  4/  6 1011.4R
S. MONICA BASIN            58 63  140/  2/  4 1011.5R   2/190/16
S PEDRO CHANNEL               62                N/A     2/170/15
OCEANSIDE OFFSHR              64                N/A     2/190/15
TORREY PINES OTR              65                N/A     2/190/15
LA JOLLA 1                 62 67  230/  3/  3 1011.0R
SAN DIEGO BAY                 69              1011.4R
POINT LOMA SOUTH              66                N/A     2/190/15

$$





USA.gov is the U.S. government's official web portal to all federal, state and local government web resources and services.